This is the latest recevied weather packets stored in our database for station/object N4NVD-13. If no packets are shown the sender has not sent any weather packets the latest 10 day(s).
| Time | Temp. | Humidity | Pressure | Rain* | Wind** | Luminosity | Snow |
|---|---|---|---|---|---|---|---|
| 1777997382 | 25° C | 92% | 1008.1 hPa | 0 mm | - | 188 W/m² | - |
| 1777997081 | 24.44° C | 92% | 1008 hPa | 0 mm | - | 114 W/m² | - |
| 1777996777 | 25° C | 91% | 1008.2 hPa | 0 mm | - | 181 W/m² | - |
| 1777996473 | 24.44° C | 91% | 1008 hPa | 0 mm | - | 201 W/m² | - |
| 1777996170 | 24.44° C | 92% | 1008.2 hPa | 0 mm | - | 163 W/m² | - |
| 1777995866 | 24.44° C | 92% | 1008.1 hPa | 0 mm | - | 148 W/m² | - |
| 1777995562 | 24.44° C | 92% | 1008.1 hPa | 0 mm | - | 165 W/m² | - |
| 1777995259 | 24.44° C | 93% | 1008.1 hPa | 0 mm | - | 138 W/m² | - |
| 1777994950 | 23.89° C | 94% | 1008 hPa | 0 mm | - | 187 W/m² | - |
| 1777994648 | 23.89° C | 94% | 1007.9 hPa | 0 mm | - | 93 W/m² | - |
| 1777994342 | 23.89° C | 94% | 1007.8 hPa | 0 mm | - | 132 W/m² | - |
| 1777994038 | 23.89° C | 94% | 1007.9 hPa | 0 mm | - | 192 W/m² | - |
| 1777993735 | 23.89° C | 94% | 1008 hPa | 0 mm | - | 181 W/m² | - |
| 1777993427 | 23.89° C | 94% | 1007.9 hPa | 0 mm | - | 186 W/m² | - |
| 1777993127 | 23.89° C | 94% | 1007.9 hPa | 0 mm | - | 202 W/m² | - |
| 1777992825 | 23.33° C | 95% | 1007.9 hPa | 0 mm | - | 146 W/m² | - |
| 1777992523 | 23.33° C | 95% | 1008 hPa | 0 mm | - | 126 W/m² | - |
| 1777992221 | 23.33° C | 95% | 1008 hPa | 0 mm | - | 76 W/m² | - |
| 1777991918 | 23.33° C | 95% | 1007.9 hPa | 0 mm | - | 86 W/m² | - |
| 1777991615 | 23.33° C | 95% | 1007.6 hPa | 0 mm | - | 97 W/m² | - |
| 1777991312 | 23.33° C | 95% | 1007.7 hPa | 0 mm | - | 45 W/m² | - |
| 1777991010 | 23.33° C | 95% | 1007.8 hPa | 0 mm | - | 110 W/m² | - |
| 1777990707 | 22.78° C | 95% | 1007.7 hPa | 0 mm | - | 64 W/m² | - |
| 1777990404 | 22.78° C | 96% | 1007.6 hPa | 0 mm | - | 69 W/m² | - |
| 1777989797 | 22.78° C | 96% | 1007.8 hPa | 0 mm | - | 53 W/m² | - |
* Rain latest hour (hover to see other rain measurements)
** Current wind speed in m/s (hover to see current wind gust speed)